Lid_Strength_Index
2 0 -1 -1 -1 -1 -1 -1 -1 -1 -1 -1 -1 -1 -1 -1 -1 -1 -1 -1 -1 -1 -1 -1 -1 -2 -2 -2 -2 -2 -2 -2 -1 -1 -1 -1 -1 -1 -1 -1 -1 -1 -1
1 -0 -1 -1 -1 -1 -1 -1 -1 -1 -1 -1 -1 -1 -1 -1 -1 -1 -1 -1 -1 -1 -1 -2 -2 -2 -2 -2 -2 -2 -2 -1 -2 -2 -1 -1 -1 -1 -1 -1 -1 -1 -1
1 0 -0 -1 -1 -1 -1 -1 -1 -1 -1 -1 -1 -1 -1 -1 -1 -1 -1 -1 -1 -2 -2 -2 -2 -2 -2 -1 -2 -2 -2 -2 -2 -1 -1 2 1 -1 -1 -1 -1 -1 -1
1 0 -0 -0 -1 -1 -1 -1 -1 -1 -1 -1 -1 -1 -1 -1 -1 -1 -1 -1 -2 -2 -2 -2 -2 -2 -2 -2 -2 -2 -1 -1 -1 -1 -1 -1 1 0 -1 -1 -1 -1 -1
1 0 -0 -1 -0 -1 -1 -1 -1 -1 -1 -1 -1 -1 -1 -1 -1 -1 -1 -2 -2 -2 -2 -2 -2 -2 -2 -2 -1 -1 -1 -1 -1 -1 -1 -1 -1 0 -1 -1 -1 -1 -1
1 0 -0 -1 -1 -1 -1 -1 -1 -1 -1 -1 -1 -1 -1 -1 -1 -1 -1 -2 -2 -2 -2 -2 -2 -2 -2 -2 -1 -1 -1 -1 -1 -1 -1 -1 -1 -0 -1 -1 -1 -1 -1
1 0 -0 -0 -1 -1 -1 -1 -1 -1 -1 -1 -1 -1 -1 -1 -1 -1 -1 -2 -2 -2 -2 -2 -2 -2 -2 -2 -1 -1 -1 -1 -1 -1 -1 -1 0 -1 -1 -1 -1 -1 -1
1 0 0 -1 -0 -0 -1 -1 -1 -1 -1 -1 -1 -1 -1 -1 -1 -1 -1 -2 -2 -2 -2 -2 -2 -2 -2 -2 -1 -1 -1 -1 -1 -1 -1 -1 -1 -1 -1 -2 -1 -1 -1
1 0 0 0 -0 -1 -1 -0 -1 -1 -1 -1 -1 -1 -1 -1 -1 -1 -1 -2 -2 -2 -2 -2 -2 -2 -2 -2 -1 -1 -1 -1 -1 -1 -1 -1 -1 -1 -1 -2 -1 -1 -1
2 1 1 1 0 -0 -0 -1 -1 -1 -1 -1 -1 -1 -1 -1 -1 -1 -1 -1 -2 -2 -2 -2 -2 -2 -2 -2 -2 -1 -1 -1 -1 -1 -1 -1 -1 -1 -1 -2 -2 -2 -2
2 2 2 1 0 0 0 -0 -0 -1 -1 -1 -1 -1 -0 -0 -0 -0 -1 -1 -1 -2 -2 -2 -1 -1 -2 -2 -1 -1 -1 -1 -1 -1 -1 -1 -1 -1 -1 -2 -2 -2 -2
3 2 1 1 0 0 -0 0 0 0 -0 -0 -0 -0 -0 -0 -0 -0 -1 -1 -1 -1 -1 -2 -1 -1 -1 -1 -1 -1 -1 -1 -1 -1 -1 -1 -1 -1 -1 -2 -2 -2 -2
3 2 1 1 0 0 0 0 0 -0 0 -0 0 0 -0 -0 -0 -0 -0 -0 -0 -1 -0 -1 -1 -1 -1 -0 -1 -1 -1 -1 -1 -1 -1 -1 -1 -1 -1 -2 -2 -2 -2
2 2 1 1 1 0 1 0 0 0 -0 0 0 0 0 1 1 1 0 -0 -0 -0 -0 -0 -0 -0 -0 -0 -0 -0 -0 -1 -1 -1 -1 -1 -1 -1 -2 -2 -2 -2 -2
2 2 1 1 1 0 1 0 0 0 0 0 -0 -0 0 1 1 1 1 0 -0 -0 -0 -0 -0 -0 -0 -0 -0 -0 -0 -0 -1 -1 -1 -1 -1 -1 -1 -2 -2 -2 -2
2 2 1 1 1 0 1 1 1 0 0 -0 0 -0 -0 -0 0 0 0 0 0 -0 -0 -0 0 0 0 -0 0 -0 -0 -0 -1 -1 -1 -1 -1 -1 -2 -2 -2 -2 -1
2 2 2 1 1 1 1 1 1 1 1 1 0 -0 -0 0 0 1 0 1 1 1 1 2 2 2 1 1 1 0 -0 -0 -0 -1 -1 -1 -1 -1 -2 -2 -2 -1 -1
2 2 1 1 1 1 1 1 1 1 1 1 1 1 0 0 1 1 1 2 1 1 2 2 3 3 3 3 2 1 0 -0 -0 -1 -1 -1 -1 -0 -1 -2 -2 -1 -2
3 2 2 1 2 2 1 2 2 1 1 1 1 1 1 -0 0 1 2 2 3 3 3 3 3 3 4 4 3 2 1 0 -0 -0 -0 -0 -1 0 -1 -1 -2 -2 -1
5 2 2 2 1 2 2 2 1 1 0 0 0 0 0 1 1 1 2 2 3 4 4 4 4 4 4 3 3 2 1 1 0 0 0 -0 -0 0 -1 -1 -1 -1 -1
5 5 3 2 3 4 4 2 2 2 1 1 0 0 0 1 1 2 2 2 3 4 4 4 4 4 4 3 4 3 2 1 1 1 -0 1 1 0 -0 -0 -0 -1 -1
7 6 5 3 2 3 2 2 2 1 1 1 1 0 0 1 1 1 2 2 3 4 4 4 3 4 4 4 4 3 5 3 2 1 1 1 1 1 0 -0 -0 -0 -1
8 7 7 5 3 2 1 2 3 3 3 2 2 1 1 1 1 1 2 2 3 3 4 3 3 3 5 4 2 3 6 6 4 3 2 2 1 1 1 0 -0 -0 -1
8 8 8 7 5 3 2 2 2 3 3 2 2 1 1 1 1 1 2 2 3 2 3 3 2 3 3 4 3 2 2 2 5 6 3 2 1 1 1 0 -0 -0 -1
6 7 8 8 6 4 2 2 2 2 2 2 3 2 2 2 2 1 1 2 2 2 1 2 2 3 3 3 3 2 2 2 3 4 6 4 2 1 1 0 0 0 -0
6 5 6 7 7 4 3 2 2 2 2 4 4 4 3 3 2 1 1 1 1 1 1 1 2 3 3 2 2 2 3 4 4 4 5 5 4 2 1 0 0 0 -0